Time,TemperatureF,DewpointF,PressureIn,WindDirection,WindDirectionDegrees,WindSpeedMPH,WindSpeedGustMPH,Humidity,HourlyPrecipIn,Conditions,Clouds,dailyrainin,SoftwareType,DateUTC
2013-05-01 00:00:00,55.5,32.8,30.29,SSE,157,1.4,3.5,42,0.00,CLR,,0.00,WeatherDisplay:10.37,2013-05-01 04:00:00,
2013-05-01 00:01:00,55.4,32.7,30.29,SSE,151,1.9,5.0,42,0.00,CLR,,0.00,WeatherDisplay:10.37,2013-05-01 04:01:00,
2013-05-01 00:02:00,55.4,33.3,30.29,SE,136,3.9,7.0,43,0.00,CLR,,0.00,WeatherDisplay:10.37,2013-05-01 04:02:00,
2013-05-01 00:08:00,55.3,32.6,30.29,SSE,150,3.6,10.4,42,0.00,CLR,,0.00,WeatherDisplay:10.37,2013-05-01 04:08:00,
2013-05-01 00:13:00,55.3,33.2,30.29,SSE,153,2.0,4.6,43,0.00,CLR,,0.00,WeatherDisplay:10.37,2013-05-01 04:13:00,
2013-05-01 00:18:00,55.2,33.1,30.29,SE,129,3.1,5.8,43,0.00,CLR,,0.00,WeatherDisplay:10.37,2013-05-01 04:18:00,
2013-05-01 00:23:00,55.1,33.0,30.29,ESE,120,2.9,6.9,43,0.00,CLR,,0.00,WeatherDisplay:10.37,2013-05-01 04:23:00,
2013-05-01 00:28:00,55.0,32.9,30.30,SSE,155,1.6,6.9,43,0.00,CLR,,0.00,WeatherDisplay:10.37,2013-05-01 04:28:00,
2013-05-01 00:33:00,55.0,32.9,30.30,SE,126,2.4,4.6,43,0.00,CLR,,0.00,WeatherDisplay:10.37,2013-05-01 04:33:00,
2013-05-01 00:38:00,54.9,32.2,30.30,SSE,158,2.8,6.9,42,0.00,CLR,,0.00,WeatherDisplay:10.37,2013-05-01 04:38:00,
2013-05-01 00:44:00,54.9,32.2,30.30,South,182,1.4,6.9,42,0.00,CLR,,0.00,WeatherDisplay:10.37,2013-05-01 04:44:00,
2013-05-01 00:49:00,54.8,32.1,30.31,SSW,193,0.5,3.5,42,0.00,CLR,,0.00,WeatherDisplay:10.37,2013-05-01 04:49:00,
2013-05-01 00:54:00,54.8,32.1,30.31,SE,142,2.5,4.6,42,0.00,CLR,,0.00,WeatherDisplay:10.37,2013-05-01 04:54:00,
2013-05-01 00:59:00,54.7,32.0,30.31,SSE,153,0.7,4.6,42,0.00,CLR,,0.00,WeatherDisplay:10.37,2013-05-01 04:59:00,
2013-05-01 01:05:00,54.5,32.4,30.31,SE,130,0.8,6.9,43,0.00,CLR,,0.00,WeatherDisplay:10.37,2013-05-01 05:05:00,
2013-05-01 01:10:00,54.5,32.4,30.32,ESE,121,1.0,3.5,43,0.00,CLR,,0.00,WeatherDisplay:10.37,2013-05-01 05:10:00,
2013-05-01 01:15:00,54.3,32.3,30.32,SSE,149,2.0,11.5,43,0.00,CLR,,0.00,WeatherDisplay:10.37,2013-05-01 05:15:00,
2013-05-01 01:20:00,54.2,32.2,30.32,SE,124,1.8,5.8,43,0.00,CLR,,0.00,WeatherDisplay:10.37,2013-05-01 05:20:00,
2013-05-01 01:26:00,54.1,32.6,30.32,ESE,120,1.6,3.5,44,0.00,CLR,,0.00,WeatherDisplay:10.37,2013-05-01 05:26:00,
2013-05-01 01:31:00,53.9,31.9,30.32,ESE,120,1.6,3.5,43,0.00,CLR,,0.00,WeatherDisplay:10.37,2013-05-01 05:31:00,
2013-05-01 01:36:00,53.8,32.4,30.32,SE,136,1.2,3.5,44,0.00,CLR,,0.00,WeatherDisplay:10.37,2013-05-01 05:36:00,
2013-05-01 01:41:00,53.6,32.2,30.32,SE,130,2.1,3.5,44,0.00,CLR,,0.00,WeatherDisplay:10.37,2013-05-01 05:41:00,
2013-05-01 01:46:00,53.5,32.1,30.32,ESE,113,0.8,3.5,44,0.00,CLR,,0.00,WeatherDisplay:10.37,2013-05-01 05:46:00,
2013-05-01 01:51:00,53.3,31.9,30.32,East,99,2.2,9.2,44,0.00,CLR,,0.00,WeatherDisplay:10.37,2013-05-01 05:51:00,
2013-05-01 01:57:00,53.2,31.8,30.32,SE,136,0.1,3.5,44,0.00,CLR,,0.00,WeatherDisplay:10.37,2013-05-01 05:57:00,
2013-05-01 02:02:00,53.0,31.6,30.32,ESE,112,1.2,3.5,44,0.00,CLR,,0.00,WeatherDisplay:10.37,2013-05-01 06:02:00,
2013-05-01 02:07:00,52.9,31.6,30.32,SE,138,1.3,3.5,44,0.00,CLR,,0.00,WeatherDisplay:10.37,2013-05-01 06:07:00,
2013-05-01 02:12:00,52.7,31.4,30.32,SE,143,2.1,3.5,44,0.00,FEW,,0.00,WeatherDisplay:10.37,2013-05-01 06:12:00,
2013-05-01 02:17:00,52.5,31.2,30.32,SE,136,1.2,2.3,44,0.00,FEW,,0.00,WeatherDisplay:10.37,2013-05-01 06:17:00,
2013-05-01 02:23:00,52.4,31.1,30.33,SSE,147,1.1,4.6,44,0.00,FEW,,0.00,WeatherDisplay:10.37,2013-05-01 06:23:00,
2013-05-01 02:28:00,52.3,31.0,30.33,ESE,115,0.6,2.3,44,0.00,FEW,,0.00,WeatherDisplay:10.37,2013-05-01 06:28:00,
2013-05-01 02:33:00,52.2,30.9,30.33,ESE,112,1.6,3.5,44,0.00,FEW,,0.00,WeatherDisplay:10.37,2013-05-01 06:33:00,
2013-05-01 02:38:00,52.1,30.8,30.33,SE,136,0.4,3.5,44,0.00,FEW,,0.00,WeatherDisplay:10.37,2013-05-01 06:38:00,
2013-05-01 02:43:00,52.0,30.7,30.33,East,88,0.7,3.5,44,0.00,FEW,,0.00,WeatherDisplay:10.37,2013-05-01 06:43:00,
2013-05-01 02:48:00,51.9,31.2,30.33,SE,131,0.1,3.5,45,0.00,FEW,,0.00,WeatherDisplay:10.37,2013-05-01 06:48:00,
2013-05-01 02:54:00,51.6,31.5,30.33,East,100,0.2,1.2,46,0.00,FEW,,0.00,WeatherDisplay:10.37,2013-05-01 06:54:00,
2013-05-01 02:59:00,51.3,31.2,30.33,SE,142,1.0,2.3,46,0.00,FEW,,0.00,WeatherDisplay:10.37,2013-05-01 06:59:00,
2013-05-01 03:04:00,51.0,30.9,30.33,SE,146,1.2,3.5,46,0.00,FEW,,0.00,WeatherDisplay:10.37,2013-05-01 07:04:00,
2013-05-01 03:09:00,50.7,31.2,30.34,ESE,104,2.8,3.5,47,0.00,FEW,,0.00,WeatherDisplay:10.37,2013-05-01 07:09:00,
2013-05-01 03:14:00,50.5,31.0,30.34,ESE,109,1.2,3.5,47,0.00,FEW,,0.00,WeatherDisplay:10.37,2013-05-01 07:14:00,
2013-05-01 03:19:00,50.4,31.4,30.34,East,85,0.9,3.5,48,0.00,FEW,,0.00,WeatherDisplay:10.37,2013-05-01 07:19:00,
2013-05-01 03:24:00,50.4,31.4,30.34,ESE,103,2.4,3.5,48,0.00,FEW,,0.00,WeatherDisplay:10.37,2013-05-01 07:24:00,
2013-05-01 03:29:00,50.3,31.3,30.35,ESE,105,0.0,0.0,48,0.00,FEW,,0.00,WeatherDisplay:10.37,2013-05-01 07:29:00,
2013-05-01 03:35:00,50.3,30.8,30.35,ESE,111,0.0,1.2,47,0.00,FEW,,0.00,WeatherDisplay:10.37,2013-05-01 07:35:00,
2013-05-01 03:40:00,50.2,30.7,30.35,ESE,111,0.0,1.2,47,0.00,FEW,,0.00,WeatherDisplay:10.37,2013-05-01 07:40:00,
2013-05-01 03:45:00,50.2,31.2,30.35,SE,146,0.0,0.0,48,0.00,FEW,,0.00,WeatherDisplay:10.37,2013-05-01 07:45:00,
2013-05-01 03:50:00,50.2,30.7,30.35,SE,146,0.0,0.0,47,0.00,FEW,,0.00,WeatherDisplay:10.37,2013-05-01 07:50:00,
2013-05-01 03:55:00,50.2,30.7,30.35,SE,146,0.0,0.0,47,0.00,FEW,,0.00,WeatherDisplay:10.37,2013-05-01 07:55:00,
2013-05-01 04:01:00,50.1,31.2,30.35,SE,146,0.0,0.0,48,0.00,FEW,,0.00,WeatherDisplay:10.37,2013-05-01 08:01:00,
2013-05-01 04:06:00,50.0,31.1,30.35,SE,143,0.0,0.0,48,0.00,BKN,,0.00,WeatherDisplay:10.37,2013-05-01 08:06:00,
2013-05-01 04:11:00,49.8,30.9,30.35,SE,143,0.0,0.0,48,0.00,BKN,,0.00,WeatherDisplay:10.37,2013-05-01 08:11:00,
2013-05-01 04:16:00,49.8,30.9,30.35,SE,143,0.0,0.0,48,0.00,BKN,,0.00,WeatherDisplay:10.37,2013-05-01 08:16:00,
2013-05-01 04:21:00,49.9,30.5,30.36,SE,143,0.1,1.2,47,0.00,BKN,,0.00,WeatherDisplay:10.37,2013-05-01 08:21:00,
2013-05-01 04:27:00,50.0,30.5,30.36,SE,143,0.0,1.2,47,0.00,BKN,,0.00,WeatherDisplay:10.37,2013-05-01 08:27:00,
2013-05-01 04:32:00,50.1,30.6,30.36,SE,143,0.0,0.0,47,0.00,BKN,,0.00,WeatherDisplay:10.37,2013-05-01 08:32:00,
2013-05-01 04:37:00,50.1,30.6,30.36,SE,143,0.0,0.0,47,0.00,BKN,,0.00,WeatherDisplay:10.37,2013-05-01 08:37:00,
2013-05-01 04:43:00,49.8,30.9,30.36,SSE,159,0.0,0.0,48,0.00,BKN,,0.00,WeatherDisplay:10.37,2013-05-01 08:43:00,
2013-05-01 04:48:00,49.5,30.6,30.36,SSE,159,0.0,1.2,48,0.00,BKN,,0.00,WeatherDisplay:10.37,2013-05-01 08:48:00,
2013-05-01 04:53:00,49.2,30.3,30.36,SSE,159,0.0,0.0,48,0.00,BKN,,0.00,WeatherDisplay:10.37,2013-05-01 08:53:00,
2013-05-01 04:58:00,49.1,30.2,30.36,SSE,159,0.0,1.2,48,0.00,BKN,,0.00,WeatherDisplay:10.37,2013-05-01 08:58:00,
2013-05-01 05:03:00,49.0,30.7,30.36,SSE,156,0.7,2.3,49,0.00,BKN,,0.00,WeatherDisplay:10.37,2013-05-01 09:03:00,
2013-05-01 05:08:00,48.8,30.5,30.37,SSE,156,0.0,1.2,49,0.00,BKN,,0.00,WeatherDisplay:10.37,2013-05-01 09:08:00,
2013-05-01 05:14:00,48.6,30.3,30.37,SSE,156,0.0,1.2,49,0.00,SCT,,0.00,WeatherDisplay:10.37,2013-05-01 09:14:00,
2013-05-01 05:19:00,48.5,30.2,30.37,SSE,156,0.0,0.0,49,0.00,SCT,,0.00,WeatherDisplay:10.37,2013-05-01 09:19:00,
2013-05-01 05:24:00,48.6,30.3,30.37,SSE,156,0.2,1.0,49,0.00,SCT,,0.00,WeatherDisplay:10.37,2013-05-01 09:24:00,
2013-05-01 05:29:00,48.7,30.4,30.37,SSE,156,0.0,2.3,49,0.00,SCT,,0.00,WeatherDisplay:10.37,2013-05-01 09:29:00,
2013-05-01 05:34:00,48.7,30.9,30.38,SE,144,0.6,2.3,50,0.00,SCT,,0.00,WeatherDisplay:10.37,2013-05-01 09:34:00,
2013-05-01 05:40:00,48.3,31.5,30.37,SE,136,0.6,2.3,52,0.00,SCT,,0.00,WeatherDisplay:10.37,2013-05-01 09:40:00,
2013-05-01 05:45:00,47.7,31.9,30.38,SE,136,0.0,1.2,54,0.00,SCT,,0.00,WeatherDisplay:10.37,2013-05-01 09:45:00,
2013-05-01 05:50:00,47.2,31.4,30.38,ESE,120,2.2,3.5,54,0.00,SCT,,0.00,WeatherDisplay:10.37,2013-05-01 09:50:00,
2013-05-01 05:55:00,47.1,31.3,30.38,ESE,120,0.2,1.2,54,0.00,SCT,,0.00,WeatherDisplay:10.37,2013-05-01 09:55:00,
2013-05-01 06:00:00,46.9,31.1,30.38,ESE,107,1.4,3.5,54,0.00,SCT,,0.00,WeatherDisplay:10.37,2013-05-01 10:00:00,
2013-05-01 06:05:00,46.9,31.1,30.38,SE,124,0.4,2.3,54,0.00,SCT,,0.00,WeatherDisplay:10.37,2013-05-01 10:05:00,
2013-05-01 06:10:00,47.2,30.9,30.38,SE,124,0.0,1.2,53,0.00,SCT,,0.00,WeatherDisplay:10.37,2013-05-01 10:10:00,
2013-05-01 06:16:00,47.6,30.8,30.39,SE,124,0.0,0.0,52,0.00,SCT,,0.00,WeatherDisplay:10.37,2013-05-01 10:16:00,
2013-05-01 06:21:00,48.0,30.7,30.39,SE,124,0.0,1.2,51,0.00,SCT,,0.00,WeatherDisplay:10.37,2013-05-01 10:21:00,
2013-05-01 06:26:00,48.3,30.5,30.39,SE,124,0.2,1.2,50,0.00,SCT,,0.00,WeatherDisplay:10.37,2013-05-01 10:26:00,
2013-05-01 06:31:00,48.9,30.6,30.39,SE,124,0.0,1.2,49,0.00,SCT,,0.00,WeatherDisplay:10.37,2013-05-01 10:31:00,
2013-05-01 06:36:00,49.4,31.5,30.39,ESE,123,0.1,1.2,50,0.00,SCT,,0.00,WeatherDisplay:10.37,2013-05-01 10:36:00,
2013-05-01 06:41:00,49.6,31.2,30.39,ESE,123,0.1,3.5,49,0.00,SCT,,0.00,WeatherDisplay:10.37,2013-05-01 10:41:00,
2013-05-01 06:47:00,49.7,30.8,30.39,SE,126,0.3,1.2,48,0.00,SCT,,0.00,WeatherDisplay:10.37,2013-05-01 10:47:00,
2013-05-01 06:52:00,50.0,32.1,30.39,SE,126,0.1,1.2,50,0.00,SCT,,0.00,WeatherDisplay:10.37,2013-05-01 10:52:00,
2013-05-01 06:57:00,50.3,31.8,30.39,SE,126,0.0,0.0,49,0.00,SCT,,0.00,WeatherDisplay:10.37,2013-05-01 10:57:00,
2013-05-01 07:02:00,50.6,33.1,30.40,SE,126,0.0,1.2,51,0.00,FEW,,0.00,WeatherDisplay:10.37,2013-05-01 11:02:00,
2013-05-01 07:07:00,50.6,32.1,30.40,SE,126,0.0,0.0,49,0.00,FEW,,0.00,WeatherDisplay:10.37,2013-05-01 11:07:00,
2013-05-01 07:13:00,50.7,31.7,30.40,SE,126,0.0,0.0,48,0.00,FEW,,0.00,WeatherDisplay:10.37,2013-05-01 11:13:00,
2013-05-01 07:18:00,50.9,31.4,30.41,SE,129,0.0,1.2,47,0.00,FEW,,0.00,WeatherDisplay:10.37,2013-05-01 11:18:00,
2013-05-01 07:23:00,51.2,35.1,30.41,SSW,212,0.0,1.2,54,0.00,FEW,,0.00,WeatherDisplay:10.37,2013-05-01 11:23:00,
2013-05-01 07:28:00,51.2,34.2,30.41,SSW,212,0.1,1.2,52,0.00,FEW,,0.00,WeatherDisplay:10.37,2013-05-01 11:28:00,
2013-05-01 07:33:00,51.1,33.1,30.42,SSW,212,0.3,1.2,50,0.00,FEW,,0.00,WeatherDisplay:10.37,2013-05-01 11:33:00,
2013-05-01 07:39:00,51.2,33.7,30.42,WSW,250,3.3,3.5,51,0.00,FEW,,0.00,WeatherDisplay:10.37,2013-05-01 11:39:00,
2013-05-01 07:44:00,51.2,34.2,30.42,WSW,250,0.5,2.3,52,0.00,FEW,,0.00,WeatherDisplay:10.37,2013-05-01 11:44:00,
2013-05-01 07:49:00,51.4,34.3,30.42,WSW,254,3.1,3.5,52,0.00,FEW,,0.00,WeatherDisplay:10.37,2013-05-01 11:49:00,
2013-05-01 07:54:00,51.6,35.0,30.42,WSW,254,0.4,3.5,53,0.00,FEW,,0.00,WeatherDisplay:10.37,2013-05-01 11:54:00,
2013-05-01 07:59:00,51.9,34.3,30.42,WSW,254,1.0,2.3,51,0.00,FEW,,0.00,WeatherDisplay:10.37,2013-05-01 11:59:00,
2013-05-01 08:04:00,52.3,35.2,30.43,West,260,2.9,3.5,52,0.00,CLR,,0.00,WeatherDisplay:10.37,2013-05-01 12:04:00,
2013-05-01 08:10:00,52.7,35.1,30.42,West,260,0.2,2.3,51,0.00,CLR,,0.00,WeatherDisplay:10.37,2013-05-01 12:10:00,
2013-05-01 08:15:00,53.1,35.4,30.42,West,260,0.6,0.0,51,0.00,CLR,,0.00,WeatherDisplay:10.37,2013-05-01 12:15:00,
2013-05-01 08:20:00,53.6,36.4,30.43,West,260,0.5,3.5,52,0.00,CLR,,0.00,WeatherDisplay:10.37,2013-05-01 12:20:00,
2013-05-01 08:25:00,54.4,35.1,30.43,West,259,0.2,1.2,48,0.00,CLR,,0.00,WeatherDisplay:10.37,2013-05-01 12:25:00,
2013-05-01 08:30:00,55.2,35.3,30.43,West,259,1.6,4.6,47,0.00,CLR,,0.00,WeatherDisplay:10.37,2013-05-01 12:30:00,
2013-05-01 08:35:00,56.0,34.9,30.43,West,262,1.2,3.5,45,0.00,CLR,,0.00,WeatherDisplay:10.37,2013-05-01 12:35:00,
2013-05-01 08:41:00,56.5,35.4,30.43,SW,227,1.3,3.5,45,0.00,CLR,,0.00,WeatherDisplay:10.37,2013-05-01 12:41:00,
2013-05-01 08:46:00,56.9,35.8,30.43,West,280,0.1,4.6,45,0.00,CLR,,0.00,WeatherDisplay:10.37,2013-05-01 12:46:00,
2013-05-01 08:51:00,57.4,36.2,30.43,West,261,0.0,0.0,45,0.00,CLR,,0.00,WeatherDisplay:10.37,2013-05-01 12:51:00,
2013-05-01 08:56:00,57.9,35.5,30.43,West,259,1.1,3.5,43,0.00,CLR,,0.00,WeatherDisplay:10.37,2013-05-01 12:56:00,
2013-05-01 09:02:00,58.1,35.7,30.43,West,259,0.1,1.2,43,0.00,CLR,,0.00,WeatherDisplay:10.37,2013-05-01 13:02:00,
2013-05-01 09:07:00,58.6,36.2,30.43,West,259,0.3,2.3,43,0.00,CLR,,0.00,WeatherDisplay:10.37,2013-05-01 13:07:00,
2013-05-01 09:12:00,59.0,37.7,30.43,SW,223,2.3,4.6,45,0.00,CLR,,0.00,WeatherDisplay:10.37,2013-05-01 13:12:00,
2013-05-01 09:17:00,59.1,36.0,30.43,SSW,208,2.3,3.5,42,0.00,CLR,,0.00,WeatherDisplay:10.37,2013-05-01 13:17:00,
2013-05-01 09:22:00,59.7,35.9,30.43,SW,216,1.5,3.5,41,0.00,CLR,,0.00,WeatherDisplay:10.37,2013-05-01 13:22:00,
2013-05-01 09:27:00,60.1,37.5,30.43,SW,236,0.0,0.0,43,0.00,CLR,,0.00,WeatherDisplay:10.37,2013-05-01 13:27:00,
2013-05-01 09:33:00,60.5,36.0,30.43,SW,236,0.1,1.2,40,0.00,CLR,,0.00,WeatherDisplay:10.37,2013-05-01 13:33:00,
2013-05-01 09:38:00,61.0,36.5,30.43,SW,236,0.0,0.0,40,0.00,CLR,,0.00,WeatherDisplay:10.37,2013-05-01 13:38:00,
2013-05-01 09:43:00,61.7,37.7,30.43,SW,236,1.3,3.5,41,0.00,CLR,,0.00,WeatherDisplay:10.37,2013-05-01 13:43:00,
2013-05-01 09:48:00,62.0,36.1,30.43,WSW,237,0.0,1.2,38,0.00,CLR,,0.00,WeatherDisplay:10.37,2013-05-01 13:48:00,
2013-05-01 09:53:00,62.2,39.4,30.43,SSW,203,1.1,2.3,43,0.00,CLR,,0.00,WeatherDisplay:10.37,2013-05-01 13:53:00,
2013-05-01 09:58:00,62.5,38.5,30.43,WSW,240,1.5,3.5,41,0.00,CLR,,0.00,WeatherDisplay:10.37,2013-05-01 13:58:00,
2013-05-01 10:04:00,62.9,38.2,30.43,WSW,240,0.5,3.5,40,0.00,CLR,,0.00,WeatherDisplay:10.37,2013-05-01 14:04:00,
2013-05-01 10:09:00,63.5,38.7,30.43,ESE,110,0.7,3.5,40,0.00,CLR,,0.00,WeatherDisplay:10.37,2013-05-01 14:09:00,
2013-05-01 10:14:00,64.0,36.5,30.43,SW,218,0.1,1.2,36,0.00,CLR,,0.00,WeatherDisplay:10.37,2013-05-01 14:14:00,
2013-05-01 10:19:00,64.4,35.4,30.42,East,98,0.9,3.5,34,0.00,CLR,,0.00,WeatherDisplay:10.37,2013-05-01 14:19:00,
2013-05-01 10:24:00,64.9,36.6,30.42,SSW,206,3.5,5.8,35,0.00,CLR,,0.00,WeatherDisplay:10.37,2013-05-01 14:24:00,
2013-05-01 10:29:00,65.3,34.7,30.42,SW,219,2.6,6.9,32,0.00,CLR,,0.00,WeatherDisplay:10.37,2013-05-01 14:29:00,
2013-05-01 10:34:00,65.3,34.7,30.42,SW,232,1.4,3.5,32,0.00,CLR,,0.00,WeatherDisplay:10.37,2013-05-01 14:34:00,
2013-05-01 10:40:00,65.3,33.9,30.42,WSW,239,2.0,2.3,31,0.00,CLR,,0.00,WeatherDisplay:10.37,2013-05-01 14:40:00,
2013-05-01 10:45:00,65.5,35.6,30.42,South,179,2.3,5.8,33,0.00,CLR,,0.00,WeatherDisplay:10.37,2013-05-01 14:45:00,
2013-05-01 10:50:00,65.8,34.3,30.42,ESE,115,1.6,3.5,31,0.00,CLR,,0.00,WeatherDisplay:10.37,2013-05-01 14:50:00,
2013-05-01 10:55:00,66.0,36.1,30.42,SSW,199,1.5,9.0,33,0.00,CLR,,0.00,WeatherDisplay:10.37,2013-05-01 14:55:00,
2013-05-01 11:00:00,66.2,35.4,30.42,WSW,240,4.6,5.8,32,0.00,CLR,,0.00,WeatherDisplay:10.37,2013-05-01 15:00:00,
2013-05-01 11:06:00,66.6,38.1,30.42,SSW,200,4.8,6.9,35,0.00,CLR,,0.00,WeatherDisplay:10.37,2013-05-01 15:06:00,
2013-05-01 11:11:00,66.8,37.5,30.41,NNW,327,0.1,1.2,34,0.00,CLR,,0.00,WeatherDisplay:10.37,2013-05-01 15:11:00,
2013-05-01 11:16:00,66.9,36.8,30.41,West,274,5.8,6.9,33,0.00,CLR,,0.00,WeatherDisplay:10.37,2013-05-01 15:16:00,
2013-05-01 11:21:00,67.0,39.1,30.41,SE,145,0.3,3.5,36,0.00,CLR,,0.00,WeatherDisplay:10.37,2013-05-01 15:21:00,
2013-05-01 11:26:00,67.6,36.7,30.41,SSW,206,1.3,3.5,32,0.00,CLR,,0.00,WeatherDisplay:10.37,2013-05-01 15:26:00,
2013-05-01 11:31:00,67.8,37.6,30.40,South,191,5.1,9.0,33,0.00,CLR,,0.00,WeatherDisplay:10.37,2013-05-01 15:31:00,
2013-05-01 11:37:00,67.7,36.0,30.40,WSW,256,0.9,5.8,31,0.00,CLR,,0.00,WeatherDisplay:10.37,2013-05-01 15:37:00,
2013-05-01 11:42:00,67.7,36.8,30.40,SW,215,6.3,9.2,32,0.00,CLR,,0.00,WeatherDisplay:10.37,2013-05-01 15:42:00,
2013-05-01 11:47:00,68.0,37.0,30.40,South,172,1.0,3.5,32,0.00,CLR,,0.00,WeatherDisplay:10.37,2013-05-01 15:47:00,
2013-05-01 11:52:00,68.4,36.6,30.40,SW,229,3.2,4.6,31,0.00,CLR,,0.00,WeatherDisplay:10.37,2013-05-01 15:52:00,
2013-05-01 11:57:00,68.5,38.2,30.39,WSW,244,0.2,1.2,33,0.00,CLR,,0.00,WeatherDisplay:10.37,2013-05-01 15:57:00,
2013-05-01 12:03:00,69.0,37.9,30.39,SSW,212,3.5,5.8,32,0.00,CLR,,0.00,WeatherDisplay:10.37,2013-05-01 16:03:00,
2013-05-01 12:08:00,69.3,37.3,30.39,NE,49,0.1,1.2,31,0.00,CLR,,0.00,WeatherDisplay:10.37,2013-05-01 16:08:00,
2013-05-01 12:13:00,69.8,38.6,30.39,ESE,102,3.8,6.9,32,0.00,CLR,,0.00,WeatherDisplay:10.37,2013-05-01 16:13:00,
2013-05-01 12:19:00,69.9,37.0,30.39,SW,234,3.9,10.4,30,0.00,CLR,,0.00,WeatherDisplay:10.37,2013-05-01 16:19:00,
2013-05-01 12:24:00,69.6,37.6,30.39,WSW,241,4.2,5.8,31,0.00,CLR,,0.00,WeatherDisplay:10.37,2013-05-01 16:24:00,
2013-05-01 12:29:00,69.7,37.7,30.38,SW,229,5.0,6.9,31,0.00,CLR,,0.00,WeatherDisplay:10.37,2013-05-01 16:29:00,
2013-05-01 12:34:00,70.1,37.2,30.38,SW,215,3.5,8.1,30,0.00,CLR,,0.00,WeatherDisplay:10.37,2013-05-01 16:34:00,
2013-05-01 12:40:00,70.4,38.3,30.38,SE,128,0.5,4.6,31,0.00,CLR,,0.00,WeatherDisplay:10.37,2013-05-01 16:40:00,
2013-05-01 12:45:00,71.0,40.4,30.37,West,276,5.0,7.0,33,0.00,CLR,,0.00,WeatherDisplay:10.37,2013-05-01 16:45:00,
2013-05-01 12:50:00,71.1,40.5,30.37,West,273,3.3,6.9,33,0.00,CLR,,0.00,WeatherDisplay:10.37,2013-05-01 16:50:00,
2013-05-01 12:55:00,70.9,37.9,30.37,SE,138,0.3,2.3,30,0.00,CLR,,0.00,WeatherDisplay:10.37,2013-05-01 16:55:00,
2013-05-01 13:00:00,71.0,40.4,30.38,West,261,0.3,3.5,33,0.00,CLR,,0.00,WeatherDisplay:10.37,2013-05-01 17:00:00,
2013-05-01 13:06:00,71.5,39.3,30.37,South,188,4.4,9.0,31,0.00,CLR,,0.00,WeatherDisplay:10.37,2013-05-01 17:06:00,
2013-05-01 13:11:00,71.8,41.9,30.38,WNW,300,0.0,4.0,34,0.00,CLR,,0.00,WeatherDisplay:10.37,2013-05-01 17:11:00,
2013-05-01 13:16:00,72.0,42.1,30.37,WNW,301,0.1,1.2,34,0.00,CLR,,0.00,WeatherDisplay:10.37,2013-05-01 17:16:00,
2013-05-01 13:21:00,72.5,42.5,30.37,West,267,3.5,5.8,34,0.00,CLR,,0.00,WeatherDisplay:10.37,2013-05-01 17:21:00,
2013-05-01 13:27:00,73.0,40.6,30.37,West,277,1.2,5.8,31,0.00,CLR,,0.00,WeatherDisplay:10.37,2013-05-01 17:27:00,
2013-05-01 13:32:00,72.8,42.0,30.37,WSW,246,0.5,3.0,33,0.00,CLR,,0.00,WeatherDisplay:10.37,2013-05-01 17:32:00,
2013-05-01 13:37:00,72.8,40.4,30.37,NW,310,2.7,5.8,31,0.00,CLR,,0.00,WeatherDisplay:10.37,2013-05-01 17:37:00,
2013-05-01 13:42:00,72.7,40.3,30.37,SW,227,4.5,10.4,31,0.00,CLR,,0.00,WeatherDisplay:10.37,2013-05-01 17:42:00,
2013-05-01 13:47:00,72.4,42.4,30.36,WSW,249,2.3,5.8,34,0.00,CLR,,0.00,WeatherDisplay:10.37,2013-05-01 17:47:00,
2013-05-01 13:53:00,73.0,41.4,30.36,WSW,250,7.8,11.5,32,0.00,CLR,,0.00,WeatherDisplay:10.37,2013-05-01 17:53:00,
2013-05-01 13:58:00,73.1,39.8,30.36,SW,214,5.6,9.2,30,0.00,CLR,,0.00,WeatherDisplay:10.37,2013-05-01 17:58:00,
2013-05-01 14:03:00,72.9,38.8,30.36,WSW,252,4.3,9.2,29,0.00,CLR,,0.00,WeatherDisplay:10.37,2013-05-01 18:03:00,
2013-05-01 14:08:00,73.6,41.1,30.36,WSW,246,2.9,3.5,31,0.00,CLR,,0.00,WeatherDisplay:10.37,2013-05-01 18:08:00,
2013-05-01 14:13:00,73.7,40.3,30.36,WSW,249,1.6,5.0,30,0.00,CLR,,0.00,WeatherDisplay:10.37,2013-05-01 18:13:00,
2013-05-01 14:19:00,73.6,40.2,30.36,WSW,250,5.7,12.7,30,0.00,CLR,,0.00,WeatherDisplay:10.37,2013-05-01 18:19:00,
2013-05-01 14:24:00,73.8,42.9,30.36,SSE,159,2.3,5.8,33,0.00,CLR,,0.00,WeatherDisplay:10.37,2013-05-01 18:24:00,
2013-05-01 14:29:00,73.6,41.1,30.36,WSW,246,7.0,11.5,31,0.00,CLR,,0.00,WeatherDisplay:10.37,2013-05-01 18:29:00,
2013-05-01 14:34:00,74.0,41.4,30.36,WNW,300,3.1,3.5,31,0.00,CLR,,0.00,WeatherDisplay:10.37,2013-05-01 18:34:00,
2013-05-01 14:39:00,74.3,41.7,30.36,WSW,240,4.5,10.4,31,0.00,CLR,,0.00,WeatherDisplay:10.37,2013-05-01 18:39:00,
2013-05-01 14:44:00,74.9,43.0,30.35,WSW,241,9.9,12.7,32,0.00,CLR,,0.00,WeatherDisplay:10.37,2013-05-01 18:44:00,
2013-05-01 14:50:00,74.8,41.3,30.35,West,270,4.1,10.4,30,0.00,CLR,,0.00,WeatherDisplay:10.37,2013-05-01 18:50:00,
2013-05-01 14:55:00,75.1,43.2,30.35,ESE,115,3.5,5.8,32,0.00,CLR,,0.00,WeatherDisplay:10.37,2013-05-01 18:55:00,
2013-05-01 15:00:00,75.2,43.3,30.35,SSW,195,2.6,5.8,32,0.00,CLR,,0.00,WeatherDisplay:10.37,2013-05-01 19:00:00,
2013-05-01 15:05:00,75.0,43.1,30.35,SW,227,3.0,9.2,32,0.00,CLR,,0.00,WeatherDisplay:10.37,2013-05-01 19:05:00,
2013-05-01 15:10:00,75.1,40.7,30.35,South,175,1.9,4.6,29,0.00,CLR,,0.00,WeatherDisplay:10.37,2013-05-01 19:10:00,
2013-05-01 15:15:00,74.9,40.5,30.35,North,355,1.3,3.5,29,0.00,CLR,,0.00,WeatherDisplay:10.37,2013-05-01 19:15:00,
2013-05-01 15:20:00,74.8,41.3,30.35,North,10,1.8,3.5,30,0.00,CLR,,0.00,WeatherDisplay:10.37,2013-05-01 19:20:00,
2013-05-01 15:26:00,75.4,40.9,30.35,WSW,239,3.0,6.9,29,0.00,CLR,,0.00,WeatherDisplay:10.37,2013-05-01 19:26:00,
2013-05-01 15:31:00,75.3,42.6,30.35,SE,140,1.1,3.5,31,0.00,CLR,,0.00,WeatherDisplay:10.37,2013-05-01 19:31:00,
2013-05-01 15:36:00,75.5,41.0,30.34,West,267,2.5,4.0,29,0.00,CLR,,0.00,WeatherDisplay:10.37,2013-05-01 19:36:00,
2013-05-01 15:41:00,76.0,41.4,30.34,WSW,246,2.6,4.6,29,0.00,CLR,,0.00,WeatherDisplay:10.37,2013-05-01 19:41:00,
2013-05-01 15:47:00,76.2,40.7,30.34,NW,306,3.6,9.2,28,0.00,CLR,,0.00,WeatherDisplay:10.37,2013-05-01 19:47:00,
2013-05-01 15:52:00,76.0,40.5,30.34,West,266,3.3,5.8,28,0.00,CLR,,0.00,WeatherDisplay:10.37,2013-05-01 19:52:00,
2013-05-01 15:57:00,76.1,39.7,30.34,West,262,6.8,11.5,27,0.00,CLR,,0.00,WeatherDisplay:10.37,2013-05-01 19:57:00,
2013-05-01 16:02:00,75.8,39.4,30.34,WNW,286,9.8,12.7,27,0.00,FEW,,0.00,WeatherDisplay:10.37,2013-05-01 20:02:00,
2013-05-01 16:07:00,75.7,39.3,30.34,West,269,7.5,11.5,27,0.00,FEW,,0.00,WeatherDisplay:10.37,2013-05-01 20:07:00,
2013-05-01 16:12:00,75.5,42.7,30.34,WNW,296,2.5,9.2,31,0.00,FEW,,0.00,WeatherDisplay:10.37,2013-05-01 20:12:00,
2013-05-01 16:18:00,75.8,40.4,30.34,SSW,210,3.8,5.8,28,0.00,FEW,,0.00,WeatherDisplay:10.37,2013-05-01 20:18:00,
2013-05-01 16:23:00,76.2,43.3,30.34,SSE,165,5.2,7.0,31,0.00,FEW,,0.00,WeatherDisplay:10.37,2013-05-01 20:23:00,
2013-05-01 16:28:00,76.5,39.0,30.34,SW,215,3.0,4.6,26,0.00,FEW,,0.00,WeatherDisplay:10.37,2013-05-01 20:28:00,
2013-05-01 16:33:00,76.4,39.0,30.34,SSW,197,1.4,2.3,26,0.00,FEW,,0.00,WeatherDisplay:10.37,2013-05-01 20:33:00,
2013-05-01 16:39:00,76.1,38.7,30.34,SW,234,6.9,11.5,26,0.00,FEW,,0.00,WeatherDisplay:10.37,2013-05-01 20:39:00,
2013-05-01 16:44:00,75.8,38.5,30.33,SE,135,1.9,3.5,26,0.00,FEW,,0.00,WeatherDisplay:10.37,2013-05-01 20:44:00,
2013-05-01 16:49:00,76.2,37.8,30.33,WSW,238,3.4,5.8,25,0.00,FEW,,0.00,WeatherDisplay:10.37,2013-05-01 20:49:00,
2013-05-01 16:54:00,76.4,38.0,30.34,WSW,248,7.6,10.4,25,0.00,FEW,,0.00,WeatherDisplay:10.37,2013-05-01 20:54:00,
2013-05-01 16:59:00,76.2,38.8,30.34,WNW,289,7.1,10.4,26,0.00,FEW,,0.00,WeatherDisplay:10.37,2013-05-01 20:59:00,
2013-05-01 17:05:00,76.7,38.2,30.34,SW,217,4.0,6.0,25,0.00,FEW,,0.00,WeatherDisplay:10.37,2013-05-01 21:05:00,
2013-05-01 17:10:00,76.9,38.4,30.34,WSW,254,5.4,12.7,25,0.00,FEW,,0.00,WeatherDisplay:10.37,2013-05-01 21:10:00,
2013-05-01 17:15:00,76.5,39.0,30.34,West,269,6.9,11.5,26,0.00,FEW,,0.00,WeatherDisplay:10.37,2013-05-01 21:15:00,
2013-05-01 17:20:00,76.3,37.9,30.34,NW,314,2.5,4.6,25,0.00,FEW,,0.00,WeatherDisplay:10.37,2013-05-01 21:20:00,
2013-05-01 17:25:00,76.6,39.1,30.34,WSW,254,5.2,10.4,26,0.00,FEW,,0.00,WeatherDisplay:10.37,2013-05-01 21:25:00,
2013-05-01 17:30:00,76.9,37.3,30.34,WSW,256,2.3,4.0,24,0.00,FEW,,0.00,WeatherDisplay:10.37,2013-05-01 21:30:00,
2013-05-01 17:36:00,76.7,37.2,30.34,SW,232,4.2,6.9,24,0.00,FEW,,0.00,WeatherDisplay:10.37,2013-05-01 21:36:00,
2013-05-01 17:41:00,76.4,36.9,30.34,WSW,257,7.3,11.5,24,0.00,FEW,,0.00,WeatherDisplay:10.37,2013-05-01 21:41:00,
2013-05-01 17:46:00,76.5,39.0,30.34,South,188,4.9,10.0,26,0.00,FEW,,0.00,WeatherDisplay:10.37,2013-05-01 21:46:00,
2013-05-01 17:52:00,76.5,37.0,30.34,SSW,193,2.2,3.5,24,0.00,FEW,,0.00,WeatherDisplay:10.37,2013-05-01 21:52:00,
2013-05-01 17:57:00,76.2,37.8,30.34,WSW,257,4.0,5.8,25,0.00,FEW,,0.00,WeatherDisplay:10.37,2013-05-01 21:57:00,
2013-05-01 18:02:00,76.0,36.6,30.34,West,259,6.4,11.5,24,0.00,FEW,,0.00,WeatherDisplay:10.37,2013-05-01 22:02:00,
2013-05-01 18:07:00,76.0,39.6,30.34,WSW,252,1.6,4.6,27,0.00,FEW,,0.00,WeatherDisplay:10.37,2013-05-01 22:07:00,
2013-05-01 18:13:00,76.1,36.7,30.34,SW,235,6.6,6.6,24,0.00,FEW,,0.00,WeatherDisplay:10.37,2013-05-01 22:13:00,
2013-05-01 18:18:00,75.8,36.4,30.34,SSW,209,4.3,10.0,24,0.00,FEW,,0.00,WeatherDisplay:10.37,2013-05-01 22:18:00,
2013-05-01 18:23:00,75.7,38.4,30.34,SW,217,2.3,5.8,26,0.00,FEW,,0.00,WeatherDisplay:10.37,2013-05-01 22:23:00,
2013-05-01 18:28:00,75.5,37.2,30.35,West,271,2.1,6.9,25,0.00,FEW,,0.00,WeatherDisplay:10.37,2013-05-01 22:28:00,
2013-05-01 18:33:00,75.3,37.0,30.35,WSW,247,3.5,5.0,25,0.00,FEW,,0.00,WeatherDisplay:10.37,2013-05-01 22:33:00,
2013-05-01 18:38:00,75.3,37.0,30.35,WSW,246,2.4,5.0,25,0.00,FEW,,0.00,WeatherDisplay:10.37,2013-05-01 22:38:00,
2013-05-01 18:43:00,75.2,35.9,30.35,WSW,249,2.5,4.6,24,0.00,FEW,,0.00,WeatherDisplay:10.37,2013-05-01 22:43:00,
2013-05-01 18:48:00,75.0,37.8,30.35,SW,215,2.5,5.8,26,0.00,FEW,,0.00,WeatherDisplay:10.37,2013-05-01 22:48:00,
2013-05-01 18:53:00,74.8,38.6,30.35,WSW,240,7.1,10.4,27,0.00,FEW,,0.00,WeatherDisplay:10.37,2013-05-01 22:53:00,
2013-05-01 18:58:00,74.3,36.2,30.35,SW,215,6.4,9.2,25,0.00,FEW,,0.00,WeatherDisplay:10.37,2013-05-01 22:58:00,
2013-05-01 19:04:00,73.6,36.6,30.35,West,262,5.6,10.4,26,0.00,FEW,,0.00,WeatherDisplay:10.37,2013-05-01 23:04:00,
2013-05-01 19:09:00,73.1,36.2,30.35,SSW,202,3.6,6.9,26,0.00,FEW,,0.00,WeatherDisplay:10.37,2013-05-01 23:09:00,
2013-05-01 19:14:00,72.9,36.9,30.35,SW,220,2.2,5.8,27,0.00,FEW,,0.00,WeatherDisplay:10.37,2013-05-01 23:14:00,
2013-05-01 19:19:00,72.7,36.8,30.35,SW,226,3.7,5.8,27,0.00,FEW,,0.00,WeatherDisplay:10.37,2013-05-01 23:19:00,
2013-05-01 19:24:00,72.2,36.3,30.35,SW,228,3.5,6.9,27,0.00,FEW,,0.00,WeatherDisplay:10.37,2013-05-01 23:24:00,
2013-05-01 19:30:00,71.9,37.0,30.36,SW,233,3.6,6.9,28,0.00,FEW,,0.00,WeatherDisplay:10.37,2013-05-01 23:30:00,
2013-05-01 19:35:00,71.5,35.7,30.36,SW,230,2.3,4.6,27,0.00,FEW,,0.00,WeatherDisplay:10.37,2013-05-01 23:35:00,
2013-05-01 19:40:00,71.3,35.6,30.37,SW,219,2.3,4.0,27,0.00,FEW,,0.00,WeatherDisplay:10.37,2013-05-01 23:40:00,
2013-05-01 19:45:00,71.0,36.2,30.37,SW,229,0.6,3.5,28,0.00,FEW,,0.00,WeatherDisplay:10.37,2013-05-01 23:45:00,
2013-05-01 19:50:00,70.7,36.0,30.37,SW,229,0.7,2.3,28,0.00,FEW,,0.00,WeatherDisplay:10.37,2013-05-01 23:50:00,
2013-05-01 19:55:00,70.4,35.7,30.37,SW,229,2.0,3.5,28,0.00,FEW,,0.00,WeatherDisplay:10.37,2013-05-01 23:55:00,
2013-05-01 20:01:00,69.9,36.2,30.37,SW,229,2.8,5.8,29,0.00,FEW,,0.00,WeatherDisplay:10.37,2013-05-02 00:01:00,
2013-05-01 20:06:00,69.5,35.8,30.37,SW,229,0.7,1.2,29,0.00,FEW,,0.00,WeatherDisplay:10.37,2013-05-02 00:06:00,
2013-05-01 20:11:00,69.1,36.3,30.37,SW,228,0.0,1.2,30,0.00,FEW,,0.00,WeatherDisplay:10.37,2013-05-02 00:11:00,
2013-05-01 20:16:00,68.7,36.0,30.37,SW,229,0.1,1.2,30,0.00,FEW,,0.00,WeatherDisplay:10.37,2013-05-02 00:16:00,
2013-05-01 20:22:00,68.2,36.4,30.37,SW,228,0.0,1.2,31,0.00,FEW,,0.00,WeatherDisplay:10.37,2013-05-02 00:22:00,
2013-05-01 20:27:00,67.8,36.0,30.37,SSW,200,0.3,3.5,31,0.00,FEW,,0.00,WeatherDisplay:10.37,2013-05-02 00:27:00,
2013-05-01 20:32:00,67.4,36.5,30.38,SSW,199,0.8,3.5,32,0.00,FEW,,0.00,WeatherDisplay:10.37,2013-05-02 00:32:00,
2013-05-01 20:37:00,66.9,36.8,30.38,South,188,0.2,1.2,33,0.00,FEW,,0.00,WeatherDisplay:10.37,2013-05-02 00:37:00,
2013-05-01 20:42:00,66.6,36.6,30.38,SSW,196,0.0,2.3,33,0.00,FEW,,0.00,WeatherDisplay:10.37,2013-05-02 00:42:00,
2013-05-01 20:47:00,66.3,36.3,30.38,SSW,196,0.5,3.5,33,0.00,FEW,,0.00,WeatherDisplay:10.37,2013-05-02 00:47:00,
2013-05-01 20:53:00,66.1,36.9,30.39,SSW,192,0.0,1.2,34,0.00,FEW,,0.00,WeatherDisplay:10.37,2013-05-02 00:53:00,
2013-05-01 20:58:00,65.6,37.2,30.39,SSW,192,0.0,0.0,35,0.00,FEW,,0.00,WeatherDisplay:10.37,2013-05-02 00:58:00,
2013-05-01 21:03:00,65.1,36.8,30.40,SSW,207,1.7,4.6,35,0.00,FEW,,0.00,WeatherDisplay:10.37,2013-05-02 01:03:00,
2013-05-01 21:08:00,64.9,38.7,30.40,SW,236,4.9,13.8,38,0.00,FEW,,0.00,WeatherDisplay:10.37,2013-05-02 01:08:00,
2013-05-01 21:14:00,64.6,39.1,30.40,South,188,3.4,11.5,39,0.00,FEW,,0.00,WeatherDisplay:10.37,2013-05-02 01:14:00,
2013-05-01 21:19:00,64.2,38.7,30.40,South,190,2.6,6.9,39,0.00,FEW,,0.00,WeatherDisplay:10.37,2013-05-02 01:19:00,
2013-05-01 21:24:00,63.8,39.6,30.40,SW,232,0.9,9.2,41,0.00,FEW,,0.00,WeatherDisplay:10.37,2013-05-02 01:24:00,
2013-05-01 21:29:00,63.4,39.9,30.41,SSW,194,0.8,4.6,42,0.00,FEW,,0.00,WeatherDisplay:10.37,2013-05-02 01:29:00,
2013-05-01 21:34:00,63.1,40.8,30.41,West,281,2.4,9.2,44,0.00,FEW,,0.00,WeatherDisplay:10.37,2013-05-02 01:34:00,
2013-05-01 21:40:00,62.8,41.1,30.41,SW,221,3.3,5.8,45,0.00,FEW,,0.00,WeatherDisplay:10.37,2013-05-02 01:40:00,
2013-05-01 21:45:00,62.6,41.5,30.41,SW,217,3.9,11.5,46,0.00,FEW,,0.00,WeatherDisplay:10.37,2013-05-02 01:45:00,
2013-05-01 21:50:00,62.3,41.2,30.41,SW,216,3.5,9.2,46,0.00,FEW,,0.00,WeatherDisplay:10.37,2013-05-02 01:50:00,
2013-05-01 21:56:00,62.2,41.7,30.41,WSW,237,2.3,19.6,47,0.00,FEW,,0.00,WeatherDisplay:10.37,2013-05-02 01:56:00,
2013-05-01 22:01:00,62.0,42.1,30.41,SSW,194,6.0,6.9,48,0.00,FEW,,0.00,WeatherDisplay:10.37,2013-05-02 02:01:00,
2013-05-01 22:06:00,61.8,42.4,30.42,SW,218,4.2,11.5,49,0.00,FEW,,0.00,WeatherDisplay:10.37,2013-05-02 02:06:00,
2013-05-01 22:11:00,61.6,42.2,30.42,SSW,204,2.5,9.2,49,0.00,CLR,,0.00,WeatherDisplay:10.37,2013-05-02 02:11:00,
2013-05-01 22:17:00,61.5,42.7,30.42,SSW,203,1.5,4.6,50,0.00,CLR,,0.00,WeatherDisplay:10.37,2013-05-02 02:17:00,
2013-05-01 22:22:00,61.3,43.0,30.42,South,173,1.1,4.0,51,0.00,CLR,,0.00,WeatherDisplay:10.37,2013-05-02 02:22:00,
2013-05-01 22:27:00,61.1,42.8,30.42,ESE,104,1.0,3.5,51,0.00,CLR,,0.00,WeatherDisplay:10.37,2013-05-02 02:27:00,
2013-05-01 22:32:00,60.9,42.6,30.42,South,176,2.5,6.9,51,0.00,CLR,,0.00,WeatherDisplay:10.37,2013-05-02 02:32:00,
2013-05-01 22:37:00,60.6,42.9,30.42,SSE,155,1.6,10.4,52,0.00,CLR,,0.00,WeatherDisplay:10.37,2013-05-02 02:37:00,
2013-05-01 22:43:00,60.3,43.1,30.42,South,170,1.5,3.5,53,0.00,CLR,,0.00,WeatherDisplay:10.37,2013-05-02 02:43:00,
2013-05-01 22:48:00,60.1,42.9,30.42,SSE,150,0.0,5.8,53,0.00,CLR,,0.00,WeatherDisplay:10.37,2013-05-02 02:48:00,
2013-05-01 22:53:00,59.8,43.1,30.42,SSE,150,0.4,3.5,54,0.00,CLR,,0.00,WeatherDisplay:10.37,2013-05-02 02:53:00,
2013-05-01 22:58:00,59.5,43.3,30.42,SSE,152,1.5,6.9,55,0.00,CLR,,0.00,WeatherDisplay:10.37,2013-05-02 02:58:00,
2013-05-01 23:03:00,59.0,43.3,30.42,SSE,149,5.1,11.5,56,0.00,CLR,,0.00,WeatherDisplay:10.37,2013-05-02 03:03:00,
2013-05-01 23:09:00,59.0,43.8,30.42,SE,136,0.9,3.5,57,0.00,CLR,,0.00,WeatherDisplay:10.37,2013-05-02 03:09:00,
2013-05-01 23:14:00,59.0,43.8,30.41,SE,142,2.8,4.6,57,0.00,CLR,,0.00,WeatherDisplay:10.37,2013-05-02 03:14:00,
2013-05-01 23:19:00,58.8,43.6,30.42,SE,145,0.6,2.3,57,0.00,CLR,,0.00,WeatherDisplay:10.37,2013-05-02 03:19:00,
2013-05-01 23:24:00,58.6,43.9,30.41,SSE,159,1.7,3.5,58,0.00,CLR,,0.00,WeatherDisplay:10.37,2013-05-02 03:24:00,
2013-05-01 23:29:00,58.4,43.7,30.41,SE,126,2.0,3.5,58,0.00,CLR,,0.00,WeatherDisplay:10.37,2013-05-02 03:29:00,
2013-05-01 23:35:00,58.2,43.5,30.41,SSE,164,0.7,3.0,58,0.00,CLR,,0.00,WeatherDisplay:10.37,2013-05-02 03:35:00,
2013-05-01 23:40:00,57.9,43.7,30.41,SE,138,1.1,6.9,59,0.00,CLR,,0.00,WeatherDisplay:10.37,2013-05-02 03:40:00,
2013-05-01 23:45:00,57.7,43.5,30.41,SSE,151,1.0,3.5,59,0.00,CLR,,0.00,WeatherDisplay:10.37,2013-05-02 03:45:00,
2013-05-01 23:50:00,57.5,43.3,30.41,East,96,2.0,3.5,59,0.00,CLR,,0.00,WeatherDisplay:10.37,2013-05-02 03:50:00,
2013-05-01 23:55:00,57.4,43.2,30.42,SE,136,3.4,9.2,59,0.00,CLR,,0.00,WeatherDisplay:10.37,2013-05-02 03:55:00,